Location: Nairn
(57.5833°N, 3.8667°W)
Time: 02:26:45
(UTC+00:00)

Cosmos 1607 - Pass Details

Date: 07 August 2020
Orbit: 910 x 992 km, 65.0° (Epoch: 27 September)

Event Time Altitude Azimuth Distance (km) Brightness Sun altitude
Rises 02:12:56 0° 310° (NW) 3,680 7.2 -12.6°
Reaches altitude 10° 02:15:32 10° 307° (NW) 2,739 6.5 -12.4°
Maximum altitude 02:21:48 57° 231° (SW) 1,159 4.1 -12.0°
Drops below altitude 10° 02:28:06 10° 155° (SSE) 2,751 6.0 -11.6°
Sets 02:30:43 0° 151° (SSE) 3,697 6.7 -11.4°
